Regional Weather Roundup
Issued by NWS Sioux Falls, SD

Home | Current Version | Previous Version | Text Only | Print | Product List | Glossary On
Versions: 1 2 3 4 5 6 7 8 9 10 11 12 13 14 15 16 17 18 19 20 21 22 23 24 25 26 27 28 29 30 31 32 33 34 35 36 37 38 39 40 41 42 43 44 45 46 47 48 49 50
658
ASUS43 KFSD 281210
RWRFSD

WEATHER ROUNDUP FOR SE SOUTH DAKOTA/SW MINNESOTA/NW IOWA
NATIONAL WEATHER SERVICE SIOUX FALLS SD
700 AM CDT TUE MAR 28 2017

NOTE: "FAIR" INDICATES FEW OR NO CLOUDS BELOW 12,000 FEET WITH NO
SIGNIFICANT WEATHER AND OR OBSTRUCTIONS TO VISIBILITY.


SDZ038>040-050-052>070-281300-
SOUTHEAST SOUTH DAKOTA

CITY           SKY/WX    TMP DP  RH WIND       PRES   REMARKS
BROOKINGS      CLOUDY    34  33  96 CALM      30.07S
CHAMBERLAIN    PTCLDY    43  41  94 E8        30.02R
6HR MIN TEMP:  42; 6HR MAX TEMP:  49;

HURON          PTCLDY    34  34 100 SE7       30.06R WCI  28
6HR MIN TEMP:  32; 6HR MAX TEMP:  42;

MADISON        FOG       30  30 100 NE3       30.07R VSB<1/4
MITCHELL       CLOUDY    32  32 100 SE5       30.06R FOG     WCI  27
6HR MIN TEMP:  31; 6HR MAX TEMP:  41;

SIOUX FALLS    FOG       30  29  96 NE3       30.08R VSB 1
6HR MIN TEMP:  28; 6HR MAX TEMP:  42;

WINNER         CLOUDY    46  42  86 S8        30.02R
YANKTON        PTCLDY    37  36  93 E6        30.06R
$$

MNZ071-072-080-081-089-090-097-098-281300-
SOUTHWEST MINNESOTA

CITY           SKY/WX    TMP DP  RH WIND       PRES   REMARKS
FAIRMONT       CLEAR     32  31  96 CALM      30.09R FOG
JACKSON        PTCLDY    34  34 100 CALM      30.08R FOG
LUVERNE        CLEAR     32  30  93 CALM      30.09S FOG
MARSHALL       PTCLDY    34  33  96 W5        30.09R WCI  30
6HR MIN TEMP:  34; 6HR MAX TEMP:  43;

MONTEVIDEO     MOCLDY    36  30  80 CALM      30.11S
PIPESTONE      CLOUDY    36  32  87 CALM      30.07S FOG
REDWOOD FALLS  MOCLDY    38  32  79 N3        30.09R
TRACY          CLEAR     40  37  89 W6        30.09R
WINDOM         CLEAR     32  30  93 CALM      30.08R FOG
WORTHINGTON    CLEAR     33  32  96 W5        30.09R WCI  29
$$

IAZ001>003-012>014-020>022-031-032-NEZ013-014-SDZ071-281300-
NORTHWEST IOWA

CITY           SKY/WX    TMP DP  RH WIND       PRES   REMARKS
CHEROKEE       CLEAR     30  30 100 CALM      30.08S
DENISON        MOCLDY    36  36 100 CALM      30.08S FOG
ESTHERVILLE    CLEAR     32  32 100 CALM      30.08R FOG
LE MARS        PTCLDY    32  32 100 N3        30.09R
ORANGE CITY    CLEAR     36  36 100 NE6       30.07R FOG
SHELDON        CLEAR     30  30 100 NE5       30.06S FOG     WCI  25
SIOUX CITY     FOG       28  27  96 CALM      30.08S VSB 1/2
6HR MIN TEMP:  27; 6HR MAX TEMP:  38;

SPENCER        CLEAR     29  27  92 W3        30.08S
6HR MIN TEMP:  28; 6HR MAX TEMP:  33;

STORM LAKE     FOG       36  36 100 NE3       30.07S VSB<1/4
$$

ABBREVIATIONS USED IN REMARKS
   TC - TEMPERATURE IN CELSIUS
  WCI - WIND CHILL INDEX
   HX - HEAT INDEX
  VSB - VISIBILITY





USA.gov is the U.S. government's official web portal to all federal, state and local government web resources and services.